[[{"header":{"parameterUnit":"m.s-1","parameterCategory":1,"la1":30.2992,"la2":30.254,"lo1":-89.0895,"lo2":-89.0443,"dy":0.0025,"dx":0.0025,"nx":19,"ny":19,"refTime":"2026-03-20T09:00:00:Z","depth":0,"parameterNumber":2,"parameterNumberName":"U-component_of_WINDS"},"data":[0,0,0,4.0056,4.0059,4.0187,4.0187,4.0364,4.0366,0,0,0,0,0,0,0,0,0,0,0,4.0029,4.003,4.0056,4.0059,4.0187,4.0187,4.0364,4.0366,0,0,0,0,0,0,0,0,0,0,0,4.0028,4.003,4.0032,4.006,4.0187,4.0187,4.0363,4.0261,0,0,0,0,0,0,0,0,0,0,4.0135,4.0122,4.003,4.0032,4.006,4.0187,4.0187,4.0256,4.0268,4.0313,0,4.0358,0,4.0365,4.0379,4.0379,0,0,0,4.005,4.0112,4.0137,4.0032,4.0062,4.0186,4.0127,4.0263,4.0276,4.0328,4.036,4.0366,4.0368,4.038,4.0381,4.0671,4.0673,0,0,4.0043,4.0058,4.0128,4.0146,4.013,4.0123,4.0131,4.027,4.0305,4.0361,4.037,4.0371,4.0381,4.0383,4.0669,4.0671,0,0,0,4.0029,4.0053,4.0074,4.0139,4.0161,4.0127,4.0136,4.0299,4.0305,4.0372,4.0373,4.0382,4.0385,4.0668,4.067,4.0769,0,0,0,4.0024,4.0044,4.0071,4.0081,4.0159,4.0232,4.0162,4.0295,4.0311,4.0372,4.0382,4.0387,4.0666,4.0669,4.0762,4.0813,0,0,0,4.0017,4.0043,4.0066,4.0082,4.0137,4.023,4.0243,4.0298,4.0312,4.038,4.0387,4.0664,4.0668,4.0756,4.0803,4.089,0,0,0,4.0012,4.0154,4.0068,4.0225,4.0136,4.0291,4.0242,4.0357,4.0427,4.0383,4.0666,4.067,4.0754,4.0797,4.0884,4.0965,4.1001,0,0,4.0198,4.0177,4.0268,4.0195,4.0369,4.0271,4.0458,4.0509,4.0503,4.0614,4.0621,4.0764,4.0802,4.0889,4.1202,4.1231,0,0,0,4.0332,4.0397,4.044,4.0508,4.0551,4.0589,4.061,4.0628,4.0723,4.0564,4.0821,4.0843,4.0893,4.0931,4.0955,4.0996,4.0689,4.0688,4.0688,4.0614,4.0597,4.0746,4.0744,4.081,4.0829,4.0879,4.0906,4.0872,4.0932,4.0965,4.1157,4.1202,4.122,4.1263,4.1009,4.1009,4.1009,4.101,4.0882,4.097,4.0919,4.1044,4.1024,4.1128,4.115,4.1121,4.1213,4.1132,4.1176,4.1086,4.1252,4.1288,4.1017,4.1016,4.1015,4.1014,4.1013,4.1062,4.1101,4.1121,4.1215,4.1288,4.1281,4.1371,4.135,4.1332,4.1375,4.1404,4.1402,4.1395,4.1391,4.1391,4.1392,4.1393,4.1393,4.1394,4.1241,4.126,4.1339,4.1394,4.1432,4.148,4.1498,4.1535,4.157,4.1547,4.1547,4.1503,4.1273,4.1214,4.1404,4.1402,4.1401,4.14,4.1399,4.1513,4.1448,4.157,4.1609,4.1669,4.174,4.1713,4.1789,4.1816,4.186,4.1807,4.1641,4.1617,4.1597,4.1547,4.1812,4.1812,4.1812,4.1812,4.1663,4.1649,4.1767,4.1829,4.1888,4.1875,4.2009,4.2023,4.2027,4.2041,4.2,4.1934,4.1915,4.1902,4.1875,4.1828,4.2159,4.216,4.216,4.1828,4.1818,4.1937,4.1941,4.1986,4.2023,4.2147,4.2218,4.2209,4.2173,4.2051,4.2037,4.1929,4.1896,4.1855,4.1815,4.1729,0,0]},{"header":{"parameterUnit":"m.s-1","parameterCategory":1,"la1":30.2992,"la2":30.254,"lo1":-89.0895,"lo2":-89.0443,"dy":0.0025,"dx":0.0025,"nx":19,"ny":19,"refTime":"2026-03-20T09:00:00:Z","depth":0,"parameterNumber":3,"parameterNumberName":"V-component_of_WINDS"},"data":[0,0,0,3.3604,3.3608,3.3786,3.3787,3.4004,3.4006,0,0,0,0,0,0,0,0,0,0,0,3.3548,3.355,3.3604,3.3608,3.3786,3.3787,3.4004,3.4006,0,0,0,0,0,0,0,0,0,0,0,3.3548,3.3549,3.3551,3.3609,3.3786,3.3787,3.4003,3.3872,0,0,0,0,0,0,0,0,0,0,3.3701,3.3647,3.3549,3.3551,3.361,3.3786,3.3787,3.3866,3.388,3.392,0,3.3957,0,3.3985,3.402,3.4021,0,0,0,3.361,3.3635,3.3686,3.3551,3.3612,3.3785,3.3706,3.3874,3.389,3.3939,3.396,3.3968,3.3988,3.4021,3.4023,3.4248,3.4249,0,0,3.3601,3.3578,3.3675,3.3696,3.3671,3.3701,3.3712,3.3884,3.3905,3.3961,3.3973,3.3992,3.4023,3.4024,3.4247,3.4248,0,0,0,3.3571,3.3571,3.3618,3.3687,3.372,3.3706,3.3719,3.3897,3.3914,3.3976,3.3995,3.4024,3.4027,3.4246,3.4247,3.4272,0,0,0,3.3565,3.3554,3.3614,3.3602,3.3717,3.3811,3.3728,3.3902,3.3922,3.3993,3.4024,3.4029,3.4245,3.4247,3.4269,3.4288,0,0,0,3.3538,3.3551,3.3576,3.36,3.3676,3.3809,3.3836,3.3907,3.3934,3.4021,3.4029,3.4244,3.4246,3.4267,3.4284,3.4339,0,0,0,3.3502,3.3596,3.3576,3.3688,3.3674,3.3824,3.3835,3.3948,3.4026,3.4025,3.4245,3.4247,3.4266,3.4281,3.4336,3.4381,3.4398,0,0,3.3608,3.3608,3.3676,3.3663,3.381,3.3798,3.3949,3.4041,3.4069,3.4186,3.4192,3.427,3.4283,3.4338,3.4503,3.4516,0,0,0,3.3702,3.375,3.3794,3.3867,3.394,3.4003,3.4075,3.4108,3.4208,3.4125,3.4307,3.4315,3.4348,3.4371,3.4382,3.4411,3.4257,3.4257,3.4256,3.3821,3.3851,3.3964,3.4016,3.4086,3.4158,3.4217,3.4273,3.4285,3.4326,3.4361,3.4458,3.4483,3.4492,3.4521,3.4388,3.4388,3.4389,3.4389,3.3978,3.405,3.4061,3.4174,3.4205,3.43,3.437,3.4374,3.4465,3.4435,3.4465,3.4429,3.4506,3.4533,3.4391,3.439,3.439,3.439,3.439,3.4059,3.4098,3.4138,3.4245,3.4323,3.4371,3.4457,3.4482,3.4506,3.4536,3.4574,3.4574,3.4575,3.4552,3.4553,3.4553,3.4553,3.4554,3.4554,3.4127,3.417,3.4241,3.4323,3.4372,3.4439,3.4509,3.4557,3.4615,3.4626,3.4627,3.4631,3.4508,3.4476,3.4559,3.4558,3.4558,3.4557,3.4557,3.4274,3.4244,3.4353,3.4401,3.4499,3.4573,3.4603,3.4697,3.474,3.4781,3.4779,3.4684,3.4685,3.4676,3.4649,3.4773,3.4773,3.4773,3.4773,3.4341,3.4344,3.4459,3.4535,3.4611,3.4648,3.4766,3.482,3.4871,3.4898,3.4884,3.4851,3.4841,3.4848,3.4835,3.4811,3.4973,3.4973,3.4973,3.4432,3.4443,3.4541,3.4591,3.4668,3.4732,3.4843,3.4927,3.4978,3.4982,3.492,3.4911,3.4858,3.484,3.4842,3.4822,3.4778,0,0]}]]